Weather History for KGAG - May, 2014

Change the Weather History Date:

Friday, May 9, 2014

  Actual Average Record
Temperature  
Mean Temperature 62 °F -  
Max Temperature 81 °F 76 °F 102 °F (1963)
Min Temperature 44 °F 48 °F 36 °F (2003)
Degree Days  
Heating Degree Days 3    
Growing Degree Days 12 (Base 50)    
Moisture  
Dew Point 37 °F    
Average Humidity 41    
Maximum Humidity 76    
Minimum Humidity 17    
Precipitation  
Precipitation 0.00 in - - ()
Sea Level Pressure  
Sea Level Pressure 29.85 in    
Wind  
Wind Speed 10 mph (East)    
Max Wind Speed 16 mph    
Max Gust Speed 22 mph    
Visibility 10 miles    
Events      
Averages and records for this station are not official NWS values.
T = Trace of Precipitation, MM = Missing Value Source: NWS Daily Summary

Daily Weather History Graph

Daily Weather History Graph

Search for Another Location

Airport or City:

Trip Planner

Search our weather history database for the weather conditions in past years. The results will help you decide how hot, cold, wet, or windy it might be!

Date:

Astronomy

May. 09, 2014 Rise Set
Actual Time 6:37 AM CDT 8:33 PM CDT
Civil Twilight 6:09 AM CDT 9:02 PM CDT
Nautical Twilight 5:35 AM CDT 9:36 PM CDT
Astronomical Twilight 4:58 AM CDT 10:13 PM CDT
Moon 3:41 PM CDT (5/9) 3:31 AM CDT (5/9)
Length of Visible Light 14h 52m
Length of Day
13h 55m
Waxing Gibbous, 74% of the Moon is Illuminated
May 9
Waxing Gibbous
May 14
Full
May 21
Last Quarter
May 28
New
Jun 5
First Quarter

Hourly Weather History & Observations

Time (CDT) Temp. Windchill Dew Point Humidity Pressure Visibility Wind Dir Wind Speed Gust Speed Precip Events Conditions
12:53 AM 61.0 °F - 37.0 °F 41% 29.82 in 10.0 mi NNE 16.1 mph 21.9 mph N/A   Clear
1:53 AM 57.9 °F - 37.9 °F 47% 29.81 in 10.0 mi NE 16.1 mph - N/A   Clear
2:53 AM 55.0 °F - 37.9 °F 53% 29.82 in 10.0 mi NNE 11.5 mph - N/A   Clear
3:53 AM 51.8 °F - 37.4 °F 58% 29.91 in 10.0 mi North 5.8 mph - N/A   Clear
4:53 AM 48.9 °F - 37.0 °F 64% 29.87 in 10.0 mi North 4.6 mph - N/A   Clear
5:53 AM 46.0 °F 43.9 °F 37.0 °F 71% 29.90 in 10.0 mi NNW 4.6 mph - N/A   Clear
6:53 AM 44.6 °F 42.2 °F 37.4 °F 76% 29.97 in 10.0 mi NW 4.6 mph - N/A   Clear
7:53 AM 50.0 °F - 37.9 °F 63% 29.95 in 10.0 mi NW 4.6 mph - N/A   Clear
8:53 AM 55.9 °F - 39.0 °F 53% 29.96 in 10.0 mi NNW 9.2 mph - N/A   Clear
9:53 AM 61.0 °F - 39.0 °F 44% 29.95 in 10.0 mi Variable 3.5 mph - N/A   Clear
10:53 AM 64.0 °F - 37.9 °F 38% 29.93 in 10.0 mi ENE 3.5 mph - N/A   Unknown
11:53 AM 66.9 °F - 37.0 °F 33% 29.91 in 10.0 mi Calm Calm - N/A   Clear
12:53 PM 71.1 °F - 37.0 °F 29% 29.88 in 10.0 mi Calm Calm - N/A   Clear
1:53 PM 73.0 °F - 36.0 °F 26% 29.86 in 10.0 mi Variable 4.6 mph - N/A   Clear
2:53 PM 78.1 °F - 35.1 °F 21% 29.84 in 10.0 mi Variable 6.9 mph - N/A   Clear
3:53 PM 79.0 °F - 34.0 °F 20% 29.81 in 10.0 mi South 13.8 mph 18.4 mph N/A   Partly Cloudy
4:53 PM 79.0 °F - 30.9 °F 17% 29.78 in 10.0 mi South 12.7 mph 19.6 mph N/A   Clear
5:53 PM 80.1 °F - 32.0 °F 17% 29.77 in 10.0 mi SSW 12.7 mph - N/A   Clear
6:53 PM 78.1 °F - 30.0 °F 17% 29.75 in 10.0 mi South 11.5 mph - N/A   Clear
7:53 PM 75.9 °F - 35.1 °F 23% 29.74 in 10.0 mi SE 12.7 mph - N/A   Clear
8:53 PM 70.0 °F - 36.0 °F 29% 29.74 in 10.0 mi SE 13.8 mph 20.7 mph N/A   Clear
9:53 PM 68.0 °F - 42.8 °F 40% 29.80 in 10.0 mi SE 16.1 mph 21.9 mph N/A   Clear
10:53 PM 66.0 °F - 43.0 °F 43% 29.76 in 10.0 mi SSE 12.7 mph - N/A   Clear
11:53 PM 64.0 °F - 46.0 °F 52% 29.76 in 10.0 mi SE 16.1 mph 20.7 mph N/A   Clear